Lid_Strength_Index
-0 -0 0 0 0 0 0 1 0 1 1 2 2 1 1 -0 2 2 2 2 -1 -1 -1 -1 -2 -1 -1 -1 -1 -1 -1 -1 -2
1 1 1 1 1 2 1 1 1 1 1 2 3 2 2 4 4 2 2 2 -1 -1 -1 -1 -1 -1 -1 -1 -1 -1 -1 -1 -1
2 2 3 2 2 2 2 2 2 2 2 2 2 4 3 5 7 4 4 1 0 0 -0 -1 -0 -0 -0 -0 -0 -0 -0 -0 -1
2 3 3 3 3 3 3 3 2 3 3 3 3 4 3 7 8 5 5 2 1 1 1 1 0 0 1 0 0 0 -0 0 0
4 3 3 4 4 4 3 3 2 4 5 5 4 4 4 7 8 7 5 3 3 3 2 2 1 1 1 1 1 1 1 1 1
4 3 3 3 3 3 4 4 5 5 5 5 6 5 7 9 8 8 5 4 3 3 3 3 3 2 2 1 1 1 1 1 1
6 4 4 3 3 4 5 5 4 4 7 7 5 8 8 9 9 8 5 5 4 3 3 3 3 3 2 2 2 2 1 1 1
9 8 7 7 5 7 5 6 7 8 8 8 8 9 9 9 9 6 5 5 4 3 3 3 3 3 3 2 2 2 2 2 2
8 8 7 8 8 8 8 8 8 8 8 9 9 9 9 9 9 6 4 5 5 4 3 3 2 2 2 2 2 2 1 1 1
7 8 8 8 8 8 8 8 8 8 8 8 9 9 9 8 8 7 3 4 5 4 3 3 3 2 2 2 1 1 1 1 1
7 7 8 8 8 8 8 9 9 8 8 8 8 8 8 8 8 7 6 3 4 4 4 3 3 2 2 2 2 1 1 1 1
7 7 7 8 8 8 8 8 8 8 7 8 8 8 8 7 8 7 7 5 3 4 4 4 3 3 3 2 2 2 2 1 1
7 7 7 7 7 8 8 8 8 8 8 8 8 8 7 7 8 8 8 7 7 5 4 4 4 4 3 3 2 2 2 2 2
6 7 7 7 7 8 8 8 8 8 8 8 8 8 8 8 7 8 7 8 8 7 4 5 5 4 4 4 3 3 2 2 2
6 7 7 7 7 8 8 8 8 8 8 6 7 8 8 8 9 8 8 7 7 7 7 7 6 4 4 5 4 3 3 2 2
6 7 7 7 8 8 7 8 8 8 7 8 7 9 9 9 8 8 8 8 7 7 7 7 8 6 3 4 5 4 4 3 2
6 6 7 7 7 7 7 8 8 8 8 9 9 10 10 10 9 9 8 9 8 7 7 7 7 8 7 6 5 5 4 3 2
6 6 6 7 7 7 7 7 8 8 8 8 8 10 10 10 9 9 8 9 9 8 7 7 7 7 8 6 5 5 4 4 3
5 6 6 7 6 7 7 6 7 7 8 8 7 9 9 10 10 9 9 9 9 9 8 8 7 7 8 5 5 5 4 4 3
6 6 6 7 7 7 7 7 7 7 8 7 8 9 9 10 11 11 10 9 8 8 7 7 7 7 7 7 6 5 5 4 4